Skip Page Navigation
NASA JPL Caltech
NASA Logo - Jet Propulsion Laboratory + View the NASA Portal
+ Center for Near-Earth Object Studies
JPL Home Earth Solar System Stars & Galaxies Technology
JPL Solar System Dynamics
BODIES ORBITS EPHEMERIDES TOOLS PHYSICAL DATA DISCOVERY FAQ SITE MAP
IMPORTANT: The SSD Announcement email list is now available. Major changes are coming in the near future, including possible hostname and/or URL changes. To be notified of such changes, subscribe to this email list.

Please visit this page for more details.


JPL Small-Body Database Browser
Search: [ help ]  
382429 (1999 FD73)
Classification: Main-belt Asteroid          SPK-ID: 2382429
Ephemeris | Orbit Diagram | Orbital Elements | Mission Design | Physical Parameters | Discovery Circumstances | Close-Approach Data ]

[ show orbit diagram ]
Orbital Elements at Epoch 2458600.5 (2019-Apr-27.0) TDB
Reference: JPL 9 (heliocentric ecliptic J2000)
 Element Value Uncertainty (1-sigma)   Units 
e .1424972203821289 1.2513e-07  
a 2.459377671298012 2.5281e-08 au
q 2.108923189268172 3.2109e-07 au
i 2.834223336388262 1.2155e-05 deg
node 154.0614664400583 0.00026487 deg
peri 10.9437733593102 0.00027809 deg
M 89.65665505780163 8.2446e-05 deg
tp 2458249.654188018666
(2018-May-11.15418802)
0.00031983 TDB
period 1408.757578919842
3.86
2.1721e-05
5.947e-08
d
yr
n .2555443217391796 3.9402e-09 deg/d
Q 2.809832153327851 2.8883e-08 au
  Orbit Determination Parameters
   # obs. used (total)      59  
   data-arc span      6885 days (18.85 yr)  
   first obs. used      1999-03-20  
   last obs. used      2018-01-24  
   planetary ephem.      DE431  
   SB-pert. ephem.      SB431-N16  
   condition code      0  
   norm. resid. RMS      .59822  
   source      ORB  
   producer      Otto Matic  
   solution date      2018-Feb-06 09:33:57  

Additional Information
 Earth MOID = 1.11692 au 
 Jupiter MOID = 2.16411 au 
 T_jup = 3.475 
[ show covariance matrix ]

Ephemeris | Orbit Diagram | Orbital Elements | Mission Design | Physical Parameters | Discovery Circumstances | Close-Approach Data ]

Physical Parameter Table
Parameter Symbol Value Units Sigma Reference Notes
absolute magnitude H 17.8   n/a MPO200210  

382429 (1999 FD73)          Discovered 1999-Mar-20 by Sloan Digital Sky Survey at Apache Point
Reference: Last Updated: 2014-01-21

[ show close-approach data ]
Alternate Designations
 1999 FD73 = 2005 VZ72 
Ephemeris | Orbit Diagram | Orbital Elements | Mission Design | Physical Parameters | Discovery Circumstances | Close-Approach Data ]
ABOUT SSD CREDITS/AWARDS PRIVACY/COPYRIGHT GLOSSARY LINKS
FirstGov
(server date/time)  
NASA Home Page
Site Manager:   Ryan S. Park
Webmaster  Alan B. Chamberlin